sat.trackr.live / text

‹ back to catalog

STARLINK-34858

NORAD 65023 · 2025-161J

PAYLOAD ACTIVE UNKNOWN

§ Identity

Operator
Country
US
Launch date
2025-07-30
Launch site
AFWTR
Launch vehicle
Mass (kg)
RCS (m²)

Purposes: comms

External: N2YO · Heavens-Above · Gunter

§ Orbital elements

Epoch: 2026-05-25T03:27:12.840768Z

Period
94.10 min
Inclination
53.1595°
Eccentricity
0.0001111
Mean motion
15.30218850 rev/d
Perigee alt
474.4 km
Apogee alt
475.9 km
Semi-major
6,853.3 km
B*
8.4356e-4
RAAN
299.2007°
Arg perigee
89.6187°
Mean anomaly
270.4941°
Rev number
4,702

§ Raw data

STARLINK-348581 65023U 25161J   26145.14389862  .00024722  00000+0  84356-3 0  99952 65023  53.1595 299.2007 0001111  89.6187 270.4941 15.30218850 47021

JSON: /api/v1/satellites/65023 · /tle

For live sub-satellite position, see the globe view (requires WebGL).

§ Visibility from observer

Set your observer location to see the next 7 days of passes ≥ 10°. The values pass through the URL so the page stays shareable.

No JS? Fill the form by hand. The geolocation button needs JavaScript.